This is the latest recevied weather packets stored in our database for station/object KC5TIL. If no packets are shown the sender has not sent any weather packets the latest 10 day(s).
| Time | Temp. | Humidity | Pressure | Rain* | Wind** | Luminosity | Snow |
|---|---|---|---|---|---|---|---|
| 1778012798 | 32.78° C | 51% | 1005.2 hPa | 0 mm | - | 791 W/m² | - |
| 1778012494 | 32.78° C | 52% | 1005.4 hPa | 0 mm | - | 833 W/m² | - |
| 1778012185 | 32.22° C | 53% | 1005.5 hPa | 0 mm | - | 833 W/m² | - |
| 1778011878 | 32.22° C | 54% | 1005.5 hPa | 0 mm | - | 349 W/m² | - |
| 1778011576 | 32.22° C | 54% | 1005.4 hPa | 0 mm | - | 354 W/m² | - |
| 1778011272 | 32.22° C | 55% | 1005.2 hPa | 0 mm | - | 716 W/m² | - |
| 1778010968 | 32.22° C | 54% | 1005.6 hPa | 0 mm | - | 437 W/m² | - |
| 1778010666 | 32.78° C | 53% | 1005.4 hPa | 0 mm | - | 680 W/m² | - |
| 1778010362 | 32.78° C | 54% | 1005.5 hPa | 0 mm | - | 592 W/m² | - |
| 1778010052 | 32.22° C | 54% | 1005.6 hPa | 0 mm | - | 712 W/m² | - |
| 1778009750 | 32.22° C | 53% | 1005.5 hPa | 0 mm | - | 665 W/m² | - |
| 1778009447 | 31.67° C | 55% | 1005.6 hPa | 0 mm | - | 637 W/m² | - |
| 1778009145 | 31.67° C | 56% | 1005.7 hPa | 0 mm | - | 664 W/m² | - |
| 1778008843 | 31.67° C | 55% | 1005.4 hPa | 0 mm | - | 714 W/m² | - |
| 1778008540 | 31.67° C | 56% | 1005.5 hPa | 0 mm | - | 661 W/m² | - |
| 1778008238 | 31.67° C | 57% | 1005.6 hPa | 0 mm | - | 812 W/m² | - |
| 1778007932 | 31.67° C | 57% | 1005.5 hPa | 0 mm | - | 503 W/m² | - |
| 1778007629 | 31.67° C | 57% | 1005.6 hPa | 0 mm | - | 767 W/m² | - |
| 1778007326 | 31.67° C | 59% | 1005.7 hPa | 0 mm | - | 682 W/m² | - |
| 1778007022 | 31.11° C | 58% | 1005.9 hPa | 0 mm | - | 602 W/m² | - |
| 1778006719 | 31.11° C | 58% | 1005.6 hPa | 0 mm | - | 654 W/m² | - |
| 1778006416 | 31.67° C | 59% | 1005.9 hPa | 0 mm | - | 498 W/m² | - |
| 1778006113 | 30.56° C | 61% | 1006 hPa | 0 mm | - | 716 W/m² | - |
| 1778005810 | 30.56° C | 62% | 1005.8 hPa | 0 mm | - | 530 W/m² | - |
| 1778005507 | 30.56° C | 61% | 1005.9 hPa | 0 mm | - | 635 W/m² | - |
* Rain latest hour (hover to see other rain measurements)
** Current wind speed in m/s (hover to see current wind gust speed)